Weather History for KLWB - March, 2014

Change the Weather History Date:

Sunday, March 16, 2014

  Actual Average Record
Temperature  
Mean Temperature 36 °F 39 °F  
Max Temperature 44 °F 52 °F 73 °F (2015)
Min Temperature 28 °F 27 °F 13 °F (1979)
Degree Days  
Heating Degree Days 29    
Month to date heating degree days 467  
Since 1 July heating degree days 3756  
Cooling Degree Days 0    
Month to date cooling degree days 0  
Year to date cooling degree days 0  
Moisture  
Dew Point 26 °F    
Average Humidity 68    
Maximum Humidity 96    
Minimum Humidity 40    
Precipitation  
Precipitation 0.20 in - 1.00 in (1960)
Month to date precipitation 1.34  
Year to date precipitation 4.17  
Snow  
Snow 0.00 in - - ()
Month to date snowfall 4.5  
Since 1 July snowfall 35.4  
Snow Depth 0.00 in    
Sea Level Pressure  
Sea Level Pressure 29.97 in    
Wind  
Wind Speed 5 mph (NE)    
Max Wind Speed 8 mph    
Max Gust Speed 16 mph    
Visibility 7 miles    
Events Rain , Snow    
T = Trace of Precipitation, MM = Missing Value Source: NWS Daily Summary

Daily Weather History Graph

Daily Weather History Graph

Search for Another Location

Airport or City:

Trip Planner

Search our weather history database for the weather conditions in past years. The results will help you decide how hot, cold, wet, or windy it might be!

Date:

Astronomy

Mar. 16, 2014 Rise Set
Actual Time 7:31 AM EDT 7:29 PM EDT
Civil Twilight 7:05 AM EDT 7:55 PM EDT
Nautical Twilight 6:34 AM EDT 8:26 PM EDT
Astronomical Twilight 6:03 AM EDT 8:57 PM EDT
Moon 7:44 PM EDT (3/16) 7:14 AM EDT (3/16)
Length of Visible Light 12h 50m
Length of Day
11h 58m
Full, 100% of the Moon is Illuminated
Mar 16
Full
Mar 16
Full
Mar 23
Last Quarter
Mar 30
New
Apr 7
First Quarter

Hourly Weather History & Observations

Time (EDT) Temp. Windchill Dew Point Humidity Pressure Visibility Wind Dir Wind Speed Gust Speed Precip Events Conditions
12:15 AM 38.7 °F - 21.7 °F 51% 30.07 in 10.0 mi Calm Calm - N/A   Clear
12:35 AM 34.2 °F - 22.6 °F 63% 30.07 in 10.0 mi Calm Calm - N/A   Clear
12:55 AM 36.1 °F - 22.1 °F 57% 30.06 in 10.0 mi Calm Calm - N/A   Clear
1:15 AM 32.2 °F - 22.6 °F 68% 30.07 in 10.0 mi Calm Calm - N/A   Clear
1:35 AM 34.2 °F - 21.9 °F 61% 30.06 in 10.0 mi Calm Calm - N/A   Clear
2:15 AM 33.4 °F - 22.1 °F 63% 30.06 in 10.0 mi Calm Calm - N/A   Clear
2:35 AM 32.0 °F - 22.5 °F 68% 30.06 in 10.0 mi Calm Calm - N/A   Clear
2:55 AM 30.0 °F 26.5 °F 22.5 °F 73% 30.05 in 10.0 mi NNE 3.5 mph - N/A   Clear
3:15 AM 29.7 °F - 22.3 °F 74% 30.05 in 10.0 mi Calm Calm - N/A   Clear
3:35 AM 29.5 °F - 22.5 °F 75% 30.04 in 10.0 mi Calm Calm - N/A   Clear
3:55 AM 29.5 °F - 21.9 °F 73% 30.04 in 10.0 mi Calm Calm - N/A   Clear
4:15 AM 30.0 °F - 21.6 °F 71% 30.04 in 10.0 mi Calm Calm - N/A   Clear
4:35 AM 28.0 °F 22.8 °F 21.6 °F 77% 30.03 in 10.0 mi NNE 4.6 mph - N/A   Clear
4:55 AM 29.3 °F 23.2 °F 23.0 °F 77% 30.03 in 10.0 mi NNE 5.8 mph - N/A   Clear
5:15 AM 30.2 °F 25.4 °F 23.4 °F 76% 30.04 in 10.0 mi NNE 4.6 mph - N/A   Clear
5:35 AM 30.2 °F 21.3 °F 23.5 °F 76% 30.02 in 10.0 mi NNE 10.4 mph - N/A   Clear
5:55 AM 30.0 °F 22.4 °F 23.9 °F 78% 30.02 in 10.0 mi NNE 8.1 mph - N/A   Clear
6:15 AM 30.2 °F 23.4 °F 23.9 °F 77% 30.02 in 10.0 mi NNE 6.9 mph - N/A   Clear
6:35 AM 30.2 °F 24.3 °F 23.9 °F 77% 30.02 in 10.0 mi NNE 5.8 mph - N/A   Clear
6:55 AM 29.8 °F - 23.2 °F 76% 30.02 in 10.0 mi Calm Calm - N/A   Clear
7:15 AM 29.1 °F - 23.4 °F 79% 30.02 in 10.0 mi Calm Calm - N/A   Clear
7:35 AM 29.8 °F - 23.9 °F 79% 30.03 in 10.0 mi Calm Calm - N/A   Clear
7:55 AM 29.3 °F 25.6 °F 24.1 °F 81% 30.02 in 10.0 mi NNE 3.5 mph - N/A   Scattered Clouds
8:15 AM 30.4 °F 25.6 °F 24.1 °F 77% 30.03 in 10.0 mi NNE 4.6 mph - N/A   Clear
8:35 AM 32.0 °F 25.6 °F 24.6 °F 74% 30.02 in 10.0 mi NNE 6.9 mph - N/A   Clear
8:55 AM 32.0 °F 24.8 °F 25.0 °F 75% 30.02 in 10.0 mi NNE 8.1 mph - N/A   Scattered Clouds
9:15 AM 33.1 °F 28.7 °F 25.7 °F 74% 30.02 in 10.0 mi NNE 4.6 mph - N/A   Mostly Cloudy
9:35 AM 34.3 °F 30.2 °F 25.9 °F 71% 30.02 in 10.0 mi NNE 4.6 mph - N/A   Mostly Cloudy
9:55 AM 35.1 °F 31.0 °F 26.2 °F 70% 30.03 in 10.0 mi NNE 4.6 mph - N/A   Scattered Clouds
10:15 AM 36.5 °F 29.7 °F 26.1 °F 66% 30.02 in 10.0 mi North 9.2 mph - N/A   Scattered Clouds
10:35 AM 36.9 °F 30.7 °F 27.1 °F 68% 30.01 in 10.0 mi NNE 8.1 mph - N/A   Scattered Clouds
10:55 AM 38.3 °F 32.5 °F 27.9 °F 66% 30.02 in 10.0 mi North 8.1 mph - N/A   Mostly Cloudy
11:15 AM 39.9 °F 35.1 °F 27.1 °F 60% 30.02 in 10.0 mi North 6.9 mph - N/A   Overcast
11:35 AM 41.5 °F 38.6 °F 26.6 °F 55% 30.02 in 10.0 mi NE 4.6 mph - N/A   Overcast
11:55 AM 43.3 °F 40.7 °F 22.3 °F 43% 30.04 in 10.0 mi East 4.6 mph - N/A   Overcast
12:15 PM 43.7 °F - 21.9 °F 42% 30.04 in 10.0 mi Calm Calm - N/A   Overcast
12:35 PM 43.9 °F - 21.7 °F 41% 30.03 in 10.0 mi Calm Calm - N/A   Overcast
12:55 PM 44.1 °F 40.8 °F 21.2 °F 40% 30.03 in 10.0 mi East 5.8 mph - N/A   Overcast
1:15 PM 43.9 °F 41.3 °F 20.7 °F 40% 30.02 in 10.0 mi ESE 4.6 mph - N/A   Overcast
1:35 PM 43.9 °F 39.9 °F 20.7 °F 40% 30.00 in 10.0 mi ESE 6.9 mph - N/A   Overcast
1:55 PM 43.2 °F 40.5 °F 23.5 °F 46% 29.99 in 10.0 mi ESE 4.6 mph - N/A   Light Drizzle
2:15 PM 43.7 °F 42.1 °F 25.0 °F 48% 29.99 in 10.0 mi ESE 3.5 mph - N/A   Overcast
2:35 PM 41.5 °F 35.4 °F 27.5 °F 57% 29.97 in 7.0 mi ESE 10.4 mph - N/A Rain Light Rain
2:55 PM 38.3 °F 34.8 °F 31.5 °F 76% 29.96 in 5.0 mi SE 4.6 mph - N/A Rain Light Rain
3:15 PM 36.7 °F 31.2 °F 32.0 °F 83% 29.95 in 3.0 mi ENE 6.9 mph - 0.01 in Rain Rain
3:35 PM 35.1 °F 31.0 °F 32.0 °F 89% 29.96 in 4.0 mi NE 4.6 mph - 0.03 in Rain Rain
3:55 PM 34.2 °F 28.2 °F 32.0 °F 92% 29.94 in 2.0 mi ENE 6.9 mph - 0.05 in   Overcast
4:15 PM 34.2 °F 28.2 °F 32.4 °F 93% 29.92 in 2.5 mi ENE 6.9 mph - 0.01 in   Overcast
4:35 PM 34.7 °F 30.6 °F 32.9 °F 93% 29.92 in 2.5 mi NE 4.6 mph - 0.02 in Rain Light Rain
4:55 PM 34.9 °F 28.3 °F 33.3 °F 94% 29.90 in 3.0 mi ENE 8.1 mph - 0.02 in Rain Light Rain
5:15 PM 34.7 °F 28.1 °F 32.9 °F 93% 29.90 in 3.0 mi ENE 8.1 mph - N/A Rain Light Rain
5:35 PM 33.8 °F 27.7 °F 32.0 °F 93% 29.88 in 3.0 mi NE 6.9 mph - 0.01 in Snow Light Snow
5:55 PM 33.3 °F 26.4 °F 32.0 °F 95% 29.87 in 2.0 mi NE 8.1 mph - 0.01 in Snow Light Snow
6:15 PM 32.9 °F 26.7 °F 31.6 °F 95% 29.87 in 1.5 mi NE 6.9 mph 16.1 mph N/A Snow Light Snow
6:35 PM 32.5 °F 26.2 °F 31.5 °F 96% 29.87 in 1.2 mi NNE 6.9 mph - N/A Snow Light Snow
6:55 PM 32.2 °F 26.7 °F 31.1 °F 96% 29.86 in 0.8 mi NE 5.8 mph - N/A Snow Light Snow
7:15 PM 32.0 °F 24.2 °F 31.1 °F 96% 29.85 in 0.8 mi NE 9.2 mph - N/A Snow Light Snow
7:35 PM 32.0 °F 23.6 °F 31.1 °F 96% 29.85 in 1.8 mi NE 10.4 mph - N/A Snow Light Snow
7:55 PM 32.0 °F 25.6 °F 31.1 °F 96% 29.85 in 1.5 mi ENE 6.9 mph - 0.01 in Snow Light Snow
8:15 PM 32.0 °F 25.6 °F 31.1 °F 96% 29.85 in 1.5 mi NE 6.9 mph - N/A Snow Light Snow
8:35 PM 32.0 °F 27.5 °F 30.9 °F 96% 29.86 in 2.0 mi NE 4.6 mph - 0.01 in Snow Light Snow
8:55 PM 32.0 °F 26.4 °F 30.7 °F 95% 29.86 in 1.8 mi NE 5.8 mph - 0.03 in Snow Light Snow
9:15 PM 32.0 °F 27.5 °F 30.6 °F 94% 29.86 in 1.2 mi ENE 4.6 mph - 0.02 in Snow Light Snow
9:35 PM 32.0 °F - 30.7 °F 95% 29.87 in 2.0 mi Calm Calm - 0.03 in Snow Light Snow
9:55 PM 32.0 °F 26.4 °F 30.4 °F 94% 29.87 in 2.5 mi East 5.8 mph - 0.03 in Snow Light Snow
10:15 PM 31.5 °F 24.9 °F 29.3 °F 92% 29.88 in 2.0 mi East 6.9 mph - N/A Snow Light Snow
10:35 PM 31.1 °F 26.4 °F 28.8 °F 91% 29.88 in 2.5 mi ENE 4.6 mph - 0.01 in Snow Light Snow
10:55 PM 30.9 °F 24.3 °F 28.4 °F 90% 29.88 in 2.0 mi ENE 6.9 mph - 0.02 in Snow Light Snow
11:15 PM 30.2 °F 23.4 °F 28.0 °F 92% 29.86 in 2.0 mi ENE 6.9 mph - N/A Snow Light Snow
11:35 PM 30.2 °F 22.6 °F 27.5 °F 90% 29.87 in 5.0 mi East 8.1 mph - N/A Snow Light Snow
11:55 PM 30.2 °F 23.4 °F 26.4 °F 86% 29.86 in 7.0 mi East 6.9 mph - N/A   Overcast